Location: downtown San Diego
(32.7310°N, 117.1990°W)
Time: 23:49:55
(UTC-07:00)

NOSS 8 (A) - Pass Details

Date: 19 May 2017
Orbit: 429 x 1735 km, 63.3° (Epoch: 14 June)

Event Time Altitude Azimuth Distance (km) Brightness Sun altitude
Rises 20:34:35 0° 206° (SSW) 2,612 8.2 -10.2°
Reaches altitude 10° 20:36:51 10° 205° (SSW) 1,630 7.2 -10.6°
Maximum altitude 20:40:19 78° 119° (ESE) 450 4.2 -11.3°
Drops below altitude 10° 20:43:34 10° 33° (NNE) 1,529 7.1 -11.8°
Sets 20:45:38 0° 32° (NNE) 2,430 8.1 -12.2°
